Location: 5810 Zion Rd, Cleves, OH 45002, USA
(39.1922°N, 84.7113°W)
Time: 08:08:02
(UTC-05:00)

Tiros 1 - Visible Passes

Search period start: 06 December 2019 00:00
Search period end: 16 December 2019 00:00
Orbit: 630 x 664 km, 48.4° (Epoch: 05 December)

Date Brightness Start Highest point End Pass type
(mag) Time Alt. Az. Time Alt. Az. Time Alt. Az.
06 Dec 9.0 07:12:28 10° SSW 07:16:43 34° SE 07:20:56 10° ENE visible
07 Dec 10.1 05:58:39 10° SSE 06:01:02 14° SE 06:03:24 10° E visible
08 Dec 9.0 06:22:32 10° SSW 06:26:42 32° SE 06:30:51 10° ENE visible
09 Dec 10.0 05:09:02 10° SSE 05:11:02 13° SE 05:13:02 10° ESE visible
09 Dec 7.5 06:47:54 10° SW 06:52:36 70° SE 06:57:15 10° ENE visible
10 Dec 8.9 05:33:11 13° SSW 05:36:42 29° SE 05:40:45 10° ENE visible
10 Dec 7.2 07:14:01 10° WSW 07:18:41 61° NNW 07:23:19 10° NE visible
11 Dec 10.2 04:21:48 11° ESE 04:21:48 11° ESE 04:22:33 10° ESE visible
11 Dec 7.5 05:59:34 22° SW 06:02:34 65° SE 06:07:13 10° ENE visible
12 Dec 9.2 04:47:49 24° ESE 04:47:49 24° ESE 04:50:39 10° ENE visible
12 Dec 7.1 06:25:32 21° WSW 06:28:38 65° NNW 06:33:18 10° NE visible
13 Dec 8.0 05:13:31 48° E 05:13:31 48° E 05:17:10 10° ENE visible
13 Dec 7.8 06:51:14 14° W 06:54:55 39° NNW 06:59:19 10° NE visible
14 Dec 7.2 05:39:00 65° N 05:39:00 65° N 05:43:17 10° NE visible
14 Dec 8.2 07:17:15 10° WNW 07:21:22 29° N 07:25:27 10° NE visible
15 Dec 10.1 04:26:38 13° ENE 04:26:38 13° ENE 04:27:07 10° ENE visible
15 Dec 7.6 06:04:19 39° NW 06:04:50 41° NNW 06:09:17 10° NE visible
